• Join FlightAware (Why Join?)
  • Login
  • US Flag GB Flag 
20:06 EDT


 

Airport Tracker/Info


-or-


 

Live Flight TrackerFlight Track Log ✈ SKW6528 ✈ 24-Apr-2013 ✈ KBFL - KDEN

Flight Track Log - Related Links

Times and Time Zones

All times are in EDT time to prevent confusion due to time zone crossing. See the SKW6528 flight status page for this flight to view local times or setup timezone preferences in your user account.

Time Position Orientation Groundspeed Altitude Reporting Facility
EDT Latitude Longitude Course Direction KTS MPH feet Rate Location/Type
09:12 35.4742 -119.1656 131° Southeast 258 297 3,700  Level Los Angeles Center
09:13 35.4025 -119.1775 188° South 301 346 6,200 2,460 Climbing Los Angeles Center
09:14 35.0618 -118.6193 136° Southeast  Level FlightAware Approximate
09:14 35.3506 -119.1078 132° Southeast 285 328 8,700  Level Los Angeles Center
09:15 34.9724 -118.5058 141° Southeast  Level FlightAware Approximate
09:15 35.3003 -119.0333 130° Southeast 283 326 10,400  Level Los Angeles Center
09:16 34.8846 -118.3906 132° Southeast  Level FlightAware Approximate
09:16 35.2408 -118.9472 130° Southeast 321 369 11,900  Level Los Angeles Center
09:17 34.7946 -118.2779 141° Southeast  Level FlightAware Approximate
09:17 35.1806 -118.8586 130° Southeast 334 384 13,400  Level Los Angeles Center
09:18 34.7073 -118.1620 131° Southeast  Level FlightAware Approximate
09:18 35.1264 -118.7319 118° Southeast 369 425 15,000  Level Los Angeles Center
09:19 35.1164 -118.6047 95° East 377 434 16,200 1,140 Climbing Los Angeles Center
09:20 35.1094 -118.4853 94° East 386 444 17,400 1,140 Climbing Los Angeles Center
09:21 35.0992 -118.3531 95° East 392 451 18,600 1,140 Climbing Los Angeles Center
09:22 35.0903 -118.2194 95° East 395 455 19,800 1,080 Climbing Los Angeles Center
09:23 35.0806 -118.0858 95° East 397 457 20,900 1,020 Climbing Los Angeles Center
09:25 35.0767 -117.9497 92° East 407 468 21,900 960 Climbing Los Angeles Center
09:26 35.1233 -117.8225 66° East 408 470 22,900 960 Climbing Los Angeles Center
09:27 35.1725 -117.6908 65° Northeast 416 479 23,900 780 Climbing Los Angeles Center
09:28 35.2233 -117.5544 65° Northeast 424 488 24,600 600 Climbing Los Angeles Center
09:29 35.2731 -117.4186 66° East 429 494 25,200 540 Climbing Los Angeles Center
09:30 35.3225 -117.2817 66° East 434 499 25,700 540 Climbing Los Angeles Center
09:31 35.3847 -117.1133 66° East 443 510 26,300 540 Climbing Los Angeles Center
09:32 35.4364 -116.9714 66° East 450 518 26,800 480 Climbing Los Angeles Center
09:33 35.4997 -116.7986 66° East 458 527 27,400 480 Climbing Los Angeles Center
09:34 35.5522 -116.6542 66° East 462 532 28,000 540 Climbing Los Angeles Center
09:35 35.6033 -116.5083 67° East 464 534 28,500 480 Climbing Los Angeles Center
09:36 35.6553 -116.3631 66° East 463 533 29,000 480 Climbing Los Angeles Center
09:37 35.7083 -116.2175 66° East 466 536 29,500 480 Climbing Los Angeles Center
09:38 35.7603 -116.0708 66° East 468 539 30,000 480 Climbing Los Angeles Center
09:39 35.8128 -115.9247 66° East 466 536 30,500 480 Climbing Los Angeles Center
09:40 35.8731 -115.7575 66° East 461 531 31,100 480 Climbing Los Angeles Center
09:41 35.9247 -115.6100 67° East 467 537 31,600 480 Climbing Los Angeles Center
09:42 35.9750 -115.4633 67° East 469 540 32,100 480 Climbing Los Angeles Center
09:43 36.0253 -115.3181 67° East 467 537 32,600 420 Climbing Los Angeles Center
09:44 36.0753 -115.1728 67° East 464 534 33,000 180 Climbing Los Angeles Center
09:45 36.1311 -114.9928 69° East 470 541 33,000  Level Los Angeles Center
09:46 36.1781 -114.8408 69° East 474 545 33,000  Level Los Angeles Center
09:47 36.2253 -114.6842 69° East 484 557 33,000  Level Los Angeles Center
09:48 36.2739 -114.5269 69° East 489 563 33,000  Level Los Angeles Center
09:49 36.3222 -114.3672 69° East 494 568 33,000  Level Los Angeles Center
09:50 36.3700 -114.2094 69° East 491 565 33,000  Level Los Angeles Center
09:51 36.4169 -114.0514 70° East 489 563 33,000  Level Los Angeles Center
09:52 36.4708 -113.8969 67° East 487 560 33,000  Level Los Angeles Center
09:53 36.5328 -113.7206 66° East 486 559 33,000  Level Los Angeles Center
09:54 36.5869 -113.5658 66° East 489 563 33,000  Level Los Angeles Center
09:55 36.6394 -113.4111 67° East 488 562 33,000  Level Los Angeles Center
09:56 36.6928 -113.2556 67° East 489 563 33,000  Level Los Angeles Center
09:57 36.7456 -113.1003 67° East 489 563 33,000  Level Los Angeles Center
09:58 36.7983 -112.9442 67° East 491 565 33,000  Level Los Angeles Center
09:59 36.8631 -112.7569 67° East 492 566 33,000  Level Los Angeles Center
10:00 36.9147 -112.5994 68° East 494 568 33,000  Level Los Angeles Center
10:02 36.9681 -112.4411 67° East 497 572 33,000  Level Los Angeles Center
10:03 37.0203 -112.2817 68° East 498 573 33,000  Level Los Angeles Center
10:04 37.0736 -112.1222 67° East 500 575 33,000  Level Los Angeles Center
10:05 37.1256 -111.9617 68° East 501 577 33,000  Level Los Angeles Center
10:06 37.1897 -111.7681 67° East 503 579 33,000  Level Los Angeles Center
10:07 37.2419 -111.6058 68° East 504 580 33,000  Level Los Angeles Center
10:08 37.2947 -111.4431 68° East 505 581 33,000  Level Los Angeles Center
10:09 37.3481 -111.2797 68° East 506 582 33,000  Level Los Angeles Center
10:10 37.4103 -111.0836 68° East 509 586 33,000  Level Denver Center
10:11 37.4614 -110.9197 69° East 507 583 33,000  Level Denver Center
10:12 37.5144 -110.7533 68° East 512 589 33,000  Level Denver Center
10:13 37.5669 -110.5867 68° East 515 593 33,000  Level Denver Center
10:14 37.6261 -110.3950 69° East 512 589 33,000  Level Denver Center
10:15 37.6769 -110.2333 68° East 516 594 33,000  Level Denver Center
10:16 37.7253 -110.0711 69° East 516 594 33,000  Level Denver Center
10:17 37.7842 -109.8797 69° East 522 601 33,000  Level Denver Center
10:18 37.8339 -109.7167 69° East 520 598 33,000  Level Denver Center
10:19 37.8922 -109.5264 69° East 519 597 33,000  Level Denver Center
10:20 37.9417 -109.3600 69° East 525 604 33,000  Level Denver Center
10:21 37.9906 -109.1944 69° East 524 603 33,000  Level Denver Center
10:22 38.0481 -108.9997 69° East 526 605 33,000  Level Denver Center
10:23 38.0969 -108.8289 70° East 531 611 33,000  Level Denver Center
10:24 38.1547 -108.6319 69° East 531 611 33,000  Level Denver Center
10:25 38.2028 -108.4669 70° East 525 604 33,000  Level Denver Center
10:26 38.2514 -108.2992 70° East 528 608 33,000  Level Denver Center
10:27 38.3081 -108.1019 70° East 530 610 33,000  Level Denver Center
10:28 38.3553 -107.9358 70° East 525 604 33,000  Level Denver Center
10:29 38.4108 -107.7400 70° East 527 606 33,000  Level Denver Center
10:30 38.4606 -107.5728 69° East 528 608 33,000  Level Denver Center
10:31 38.5422 -107.3947 60° Northeast 523 602 33,000  Level Denver Center
10:32 38.6094 -107.2444 60° Northeast 514 592 33,000  Level Denver Center
10:33 38.6822 -107.0811 60° Northeast 519 597 33,000  Level Denver Center
10:34 38.7536 -106.9189 61° Northeast 523 602 33,000  Level Denver Center
10:36 38.8281 -106.7528 60° Northeast 526 605 33,000 -540 Level Denver Center
10:37 38.9081 -106.5717 60° Northeast 527 606 32,000 -1,380 Descending Denver Center
10:38 38.9947 -106.3850 59° Northeast 544 626 30,200 -1,680 Descending Denver Center
10:39 39.0650 -106.2331 59° Northeast 525 604 28,600 -1,680 Descending Denver Center
10:40 39.1361 -106.0714 60° Northeast 508 585 26,800 -1,740 Descending Denver Center
10:41 39.2033 -105.9200 60° Northeast 485 558 25,100 -1,680 Descending Denver Center
10:42 39.2653 -105.7797 60° Northeast 451 519 23,400 -1,680 Descending Denver Center
10:43 39.3211 -105.6494 61° Northeast 416 479 21,700 -1,560 Descending Denver Center
10:44 39.3844 -105.5072 60° Northeast 390 449 20,200 -1,440 Descending Denver Center
10:45 39.4397 -105.4011 56° Northeast 352 405 18,800 -1,320 Descending Denver Center
10:46 39.4931 -105.2972 56° Northeast 343 395 17,500 -1,200 Descending Denver Center
10:47 39.5456 -105.1972 56° Northeast 337 388 16,300 -1,020 Descending Denver Center
10:48 39.6008 -105.0914 56° Northeast 331 381 15,400 -780 Descending Denver Center
10:49 39.6492 -104.9983 56° Northeast 314 361 14,700 -720 Descending Denver Center
10:50 39.7019 -104.8975 56° Northeast 312 359 14,000 -900 Descending Denver Center
10:51 39.7597 -104.8422 36° Northeast 273 314 12,900 -1,200 Descending Denver Center
10:52 39.8333 -104.8406 North 246 283 11,600 -960 Descending Denver Center
10:53 39.9036 -104.8403 360° North 251 289 11,000 -660 Descending Denver Center
10:54 39.9703 -104.8406 360° North 241 277 10,300 -540 Descending Denver Center
10:55 40.0344 -104.8389 North 205 236 10,000 -180 Descending Denver Center
10:56 40.0869 -104.8392 360° North 188 216 10,000 -360 Level Denver Center
10:57 40.1442 -104.8350 North 203 234 9,300 -900 Descending Denver Center
10:58 40.1506 -104.7558 84° East 215 247 8,200 -660 Descending Denver Center
10:59 40.1036 -104.7136 145° Southeast 207 238 8,000 -240 Descending Denver Center